Home   Weather   Aurora   Past weeks

Flag for USA Past Weather in Aurora, Colorado, USA — Yesterday and Last 2 Weeks

Now
23 °F

Passing clouds.


Feels Like: 15 °F
Forecast: 24 / 38 °F
Wind: 6 mph from South

Location: Buckley Air Force Base

Current Time: Jan 21, 2017 at 6:36:21 am

Latest Report: Jan 21, 2017 at 5:58 am


Visibility: 10 mi

Pressure: 29.39 "Hg (23.82 "Hg at 1647m altitude)

Humidity: 74%

Dew Point: 15 °F

Location of AuroraLocation

Past Weather in Aurora — Graph

°F

Aurora Temperature Yesterday

Maximum temperature yesterday: 44 °F (at 3:58 pm)
Minimum temperature yesterday: 28 °F (at 11:58 pm)
Average temperature yesterday: 35 °F

High & Low Weather Summary for the Past Weeks

 TemperatureHumidityPressure
High59 °F (Jan 9, 1:58 pm)100% (Jan 13, 10:03 am)30.47 "Hg (Jan 13, 10:03 am)
Low-4 °F (Jan 6, 6:58 am)22% (Jan 18, 1:58 pm)29.32 "Hg (Jan 20, 1:58 pm)
Average32 °F66%29.95 "Hg
* Reported Jan 6 4:58 am — Jan 21 4:58 am, Aurora, Weather by CustomWeather, © 2017

Note: Actual official high and low records may vary slightly from our data, if they occured in-between our weather recording intervals... More about our weather records

Advertising

Aurora Weather History for the Previous 24 Hours

Scroll right to see more
 ConditionsComfort  
Time TempWeatherWind HumidityBarometerVisibility
4:58 am
Sat, Jan 21
25 °FPassing clouds.6 mph69%29.36 "Hg10 mi
3:58 am25 °FPassing clouds.7 mph69%29.36 "Hg10 mi
2:58 am24 °FPassing clouds.10 mph73%29.35 "Hg10 mi
1:58 am27 °FPassing clouds.6 mph69%29.36 "Hg10 mi
12:58 am26 °FPassing clouds.12 mph72%29.38 "Hg10 mi
11:58 pm
Fri, Jan 20
28 °FPassing clouds.9 mph74%29.40 "Hg10 mi
10:58 pm29 °FPassing clouds.10 mph86%29.42 "Hg10 mi
9:58 pm31 °FPassing clouds.9 mph84%29.41 "Hg10 mi
8:58 pm30 °FPassing clouds.8 mph92%29.44 "Hg10 mi
7:58 pm32 °FPassing clouds.5 mph87%29.44 "Hg10 mi
6:58 pm31 °FPassing clouds.12 mph88%29.41 "Hg10 mi
5:58 pm33 °FPassing clouds.9 mph84%29.41 "Hg10 mi
4:58 pm38 °FScattered clouds.8 mph65%29.37 "Hg10 mi
3:58 pm44 °FPartly sunny.3 mph49%29.33 "Hg10 mi
2:58 pm43 °FPartly sunny.No wind50%29.32 "Hg10 mi
1:58 pm43 °FPartly sunny.6 mph57%29.32 "Hg10 mi
12:58 pm40 °FPartly sunny.10 mph66%29.33 "Hg10 mi
11:58 am37 °FOvercast.7 mph75%29.40 "Hg10 mi
10:58 am36 °FOvercast.3 mph74%29.45 "Hg10 mi
9:58 am36 °FOvercast.3 mph79%29.46 "Hg10 mi
8:58 am35 °FMostly cloudy.7 mph79%29.45 "Hg10 mi
7:58 am33 °FMore clouds than sun.5 mph76%29.46 "Hg10 mi
6:58 am36 °FMostly cloudy.5 mph67%29.46 "Hg10 mi
Weather by CustomWeather, © 2017

See weather overviewHow to use our weather pages